Theta_e
306 307 306 306 306 306 308 307 307 305 302 296 293 293 298 299 300 303 303 303 303 301 302 302 302 301 301 303 305 305 306 303 303 305 306 306 307 309 311 311 310 312 311 312 312 312 312 307 307 314 315 316 319 318
305 306 306 306 307 307 307 306 302 294 292 293 296 293 294 299 301 301 302 302 303 302 302 303 302 302 302 302 303 304 307 306 306 305 303 307 308 309 310 313 307 311 307 310 310 311 306 302 302 305 308 307 318 318
306 307 307 307 306 306 306 304 297 292 292 292 295 292 293 297 299 301 301 301 301 302 302 302 304 305 306 306 305 303 307 307 305 306 306 307 307 307 310 311 308 308 308 308 308 304 302 305 315 312 314 316 316 316
307 307 306 306 306 305 304 300 294 292 291 291 292 293 293 296 301 301 300 300 302 301 301 302 305 304 305 305 306 306 306 307 306 306 306 307 308 308 311 311 311 311 311 312 309 307 311 312 314 314 314 314 314 315
306 306 306 305 299 293 292 291 291 291 291 291 292 292 293 294 297 298 300 302 301 302 302 303 304 306 305 307 307 307 306 306 307 306 306 308 307 310 308 307 312 311 312 313 311 312 312 311 313 313 314 313 313 315
306 305 304 299 293 292 291 291 291 291 291 291 291 292 296 297 296 299 303 307 307 302 301 304 305 306 306 308 309 308 308 308 308 307 307 307 308 310 308 308 309 311 311 310 311 311 310 310 312 312 312 313 314 313
304 303 297 293 291 291 291 291 291 291 292 292 292 294 300 302 302 301 303 304 305 302 301 305 302 305 307 308 309 309 308 308 308 309 309 306 308 310 307 308 309 311 310 311 310 310 310 310 311 310 310 310 311 311
297 292 291 291 291 291 291 291 291 292 292 292 294 299 302 304 304 304 306 305 303 303 304 306 303 303 308 310 310 309 310 309 309 310 309 307 307 305 307 307 310 310 310 310 310 309 309 309 308 308 308 309 308 309
291 291 291 291 291 291 291 291 294 293 293 293 298 307 307 306 305 307 307 308 305 305 307 306 303 300 307 310 310 310 310 311 309 311 307 307 304 305 306 309 309 309 309 309 309 309 309 309 308 307 305 304 305 307
291 291 291 290 290 291 291 294 294 293 293 294 302 305 307 305 305 306 308 307 304 303 306 308 306 303 306 308 307 308 309 308 310 306 308 301 303 308 310 310 309 310 310 308 309 309 309 308 308 306 305 303 303 304
291 290 290 290 290 290 291 293 293 293 292 292 292 300 303 304 303 306 308 307 306 305 305 305 305 305 306 303 302 307 303 303 305 305 308 304 303 307 311 310 310 310 309 308 309 309 309 308 307 307 305 303 302 303
290 289 290 290 290 290 291 294 293 292 290 290 293 298 300 302 304 306 306 307 307 306 306 306 307 305 306 306 306 305 304 302 309 304 307 307 306 310 311 310 309 309 309 308 309 309 309 308 307 307 305 302 301 302
289 289 290 290 290 291 293 293 292 291 291 296 299 300 302 303 299 305 304 306 310 310 310 309 308 310 308 308 306 301 306 304 303 301 307 305 308 310 310 310 309 309 308 308 309 308 306 306 306 306 305 302 301 301
289 290 290 290 291 291 293 292 291 291 290 295 300 301 303 300 301 301 303 305 308 308 307 307 309 310 310 308 305 309 305 301 300 303 304 304 310 311 310 309 309 309 309 308 308 307 306 306 306 306 304 302 301 301
289 290 290 291 291 291 290 290 291 291 291 293 298 299 300 302 302 304 305 306 304 304 303 303 308 309 308 310 307 304 308 304 302 302 299 308 311 311 311 309 309 309 309 309 308 307 306 306 306 305 303 302 300 300
289 290 290 290 290 290 290 291 291 291 295 293 295 298 301 302 302 303 302 303 302 302 303 306 307 308 310 307 307 309 305 303 301 298 307 309 311 311 311 311 310 309 308 308 308 307 307 306 306 305 302 301 300 300
289 289 289 290 290 290 291 292 292 294 295 297 297 299 299 300 301 301 303 301 300 301 301 305 308 309 307 309 310 305 303 300 305 307 308 310 311 311 311 310 310 310 309 308 308 308 307 307 306 305 303 301 300 299
289 289 290 290 290 291 292 293 294 296 297 298 298 299 300 301 301 300 299 299 300 302 304 305 309 310 309 309 306 305 307 309 309 310 307 308 311 311 311 311 310 310 309 308 308 308 308 307 306 306 304 302 300 299
289 290 290 290 291 292 292 293 294 295 297 298 298 298 298 298 298 298 299 300 300 298 302 304 304 304 306 307 306 308 310 310 310 310 310 309 310 311 311 310 310 310 310 309 308 308 308 307 306 306 305 303 301 300
290 290 291 291 291 291 292 293 294 295 296 297 297 298 297 297 298 298 296 296 296 298 303 303 303 305 307 306 306 304 305 306 308 311 311 311 310 310 311 311 310 310 310 309 309 308 308 307 306 306 305 304 303 302
291 291 291 291 292 291 291 292 293 294 295 296 296 295 294 294 295 295 297 298 298 299 299 301 303 303 304 306 304 306 307 307 307 310 310 311 310 311 311 311 310 310 310 309 309 308 308 308 307 306 306 305 304 302
291 291 291 291 292 291 292 292 292 292 292 293 294 295 295 295 296 296 298 298 298 301 300 301 301 301 303 305 307 308 309 309 308 308 309 310 310 310 311 311 310 310 309 309 309 309 308 308 307 306 306 305 304 301
291 290 291 291 292 292 292 292 293 293 294 294 294 293 294 295 297 297 297 299 301 300 300 300 300 301 302 304 306 307 307 308 309 309 308 309 310 310 310 310 311 310 310 310 309 309 308 308 307 306 306 305 304 301
290 291 291 291 291 291 293 293 293 294 294 293 293 293 294 296 297 297 299 300 300 299 300 299 300 301 302 303 304 305 306 307 308 309 309 309 310 310 310 310 310 311 310 310 309 309 309 308 307 306 306 305 303 301
291 291 290 290 291 292 293 293 294 291 293 293 293 294 295 296 298 300 301 295 295 296 297 298 298 299 299 300 301 302 302 303 305 307 309 309 310 310 310 310 310 311 310 309 309 309 309 308 307 306 306 305 303 300
288 290 289 291 293 293 293 293 292 290 292 293 294 294 296 297 299 300 297 293 293 293 295 296 297 298 298 299 299 300 300 301 304 306 308 308 309 310 310 310 310 310 310 309 310 309 309 308 307 306 305 304 303 301
289 287 291 292 292 293 293 292 292 291 292 294 295 295 296 297 295 293 292 292 292 293 294 295 296 296 296 298 298 298 300 302 305 306 308 308 309 310 310 310 310 310 310 310 310 310 309 308 307 306 305 304 303 301
291 291 292 293 293 293 294 293 293 292 293 293 294 296 297 294 291 290 291 291 292 294 295 295 296 296 296 297 297 298 300 303 304 305 307 308 309 309 309 309 310 310 310 310 310 309 309 308 308 306 305 304 303 301
291 292 292 292 293 293 293 293 293 293 293 293 294 295 294 289 289 289 291 291 292 292 293 293 293 295 297 298 297 297 298 300 300 301 301 301 304 307 309 309 309 309 309 309 309 309 308 308 307 306 305 304 303 299
292 293 293 293 294 295 295 294 294 294 294 294 294 292 289 289 289 290 290 290 290 291 291 292 292 292 292 294 296 297 296 297 297 298 298 299 299 299 302 307 307 307 308 308 307 306 305 306 305 305 304 302 300 297
293 294 294 295 294 296 296 297 297 297 296 295 295 295 290 290 288 288 289 289 290 290 290 290 290 290 290 291 291 292 293 295 296 297 297 298 300 300 300 300 304 305 305 306 306 308 307 306 306 304 302 300 298 296
295 295 296 296 296 296 297 298 297 295 294 293 292 293 291 289 287 287 286 288 288 288 289 289 289 289 290 290 291 292 292 293 294 295 296 297 298 299 301 301 302 302 302 303 303 304 304 303 302 301 299 297 295 294
295 295 295 295 295 296 296 296 297 293 291 290 289 289 288 287 286 286 285 286 287 287 288 288 289 289 289 290 289 289 290 291 292 293 294 295 296 296 296 297 299 300 301 300 300 301 303 302 300 299 299 297 294 293
Wind_Speed
30 29 29 27 28 30 31 34 35 32 29 25 25 22 18 16 11 11 15 16 15 9 28 23 13 18 15 11 3 8 10 4 4 5 3 3 2 3 4 3 3 2 2 3 4 5 8 11 10 7 3 10 11 13
26 28 28 28 30 31 33 33 32 30 27 21 26 23 18 13 13 11 16 15 16 21 31 41 42 34 36 31 17 5 4 5 2 2 2 3 3 3 5 4 1 2 2 2 3 2 7 23 20 29 27 21 10 10
26 27 28 29 33 34 34 32 30 29 25 23 21 23 20 15 11 13 18 17 19 18 26 17 12 4 0 6 10 10 6 4 3 4 2 2 5 2 3 2 3 3 5 2 3 4 9 30 9 11 6 14 18 15
26 27 30 33 33 33 32 30 29 26 25 23 23 21 19 15 14 15 18 17 17 9 5 10 10 25 21 15 17 23 21 8 6 4 4 2 3 4 3 4 3 3 7 7 3 7 15 19 31 22 20 28 25 25
26 29 29 31 31 30 28 28 26 25 24 23 22 20 19 15 16 18 20 20 21 15 4 15 26 4 7 9 10 18 25 22 7 2 3 3 4 3 2 2 3 6 4 5 3 17 9 17 21 18 31 30 25 27
27 28 28 28 28 27 27 26 26 25 23 22 22 20 17 14 13 14 6 2 4 16 4 4 11 7 10 5 5 12 17 16 8 3 5 6 5 3 2 2 5 14 16 13 5 9 16 15 17 20 17 19 26 27
28 27 26 27 27 26 26 26 25 25 24 22 21 20 16 12 11 9 4 6 4 11 4 4 6 5 10 5 4 7 11 8 7 3 4 4 4 2 1 2 6 16 16 16 19 9 9 11 9 14 14 15 13 17
25 25 25 25 25 25 25 26 26 25 23 22 19 16 14 12 13 12 2 12 10 8 5 2 4 8 2 3 2 3 3 4 6 3 3 3 4 1 2 5 7 11 13 14 15 15 13 16 19 20 18 14 15 20
24 23 24 24 23 23 23 24 26 25 21 20 13 6 4 2 2 1 7 8 18 8 5 3 1 4 3 4 3 2 3 2 2 2 3 2 1 3 5 3 3 8 9 8 15 18 19 20 20 21 21 21 16 13
23 24 23 23 23 22 21 22 25 23 21 16 6 2 2 1 3 4 5 2 9 9 7 4 5 3 4 2 2 2 2 2 2 4 3 2 3 5 5 4 1 6 10 11 13 12 18 18 16 18 20 21 19 16
23 24 23 22 21 21 19 20 22 25 21 15 10 3 5 6 6 3 3 4 4 3 5 5 9 5 6 3 3 3 2 1 2 3 0 2 3 3 8 7 1 2 9 11 11 9 12 12 14 16 20 23 23 21
22 22 21 19 20 19 18 17 20 25 20 19 12 11 7 2 4 3 4 4 4 4 4 3 5 9 5 7 2 2 2 2 4 3 1 3 3 5 11 8 3 8 11 10 9 9 9 13 13 15 19 22 23 23
20 19 19 17 18 17 16 17 22 21 21 4 3 3 3 2 2 5 4 2 2 1 1 2 3 4 4 5 2 2 1 4 1 3 3 4 5 7 11 7 10 9 12 10 9 12 12 14 15 15 19 20 21 23
18 16 16 17 18 17 18 23 22 22 10 3 3 5 4 4 4 4 3 2 2 6 16 16 6 4 4 3 2 3 3 3 2 1 5 3 8 11 11 12 13 10 13 10 10 10 14 15 16 16 16 16 20 24
17 14 14 13 15 20 22 22 21 18 5 4 4 5 5 9 7 5 5 5 9 10 15 12 4 3 1 1 2 1 3 3 5 5 3 8 8 13 12 12 9 10 10 10 11 12 12 12 15 15 14 16 18 20
16 15 11 16 18 21 21 22 19 7 4 5 7 5 9 3 4 2 6 8 13 17 17 4 2 1 4 3 3 6 5 5 4 4 7 6 11 16 16 14 11 10 9 7 12 12 11 10 12 13 13 14 16 19
16 12 16 17 20 20 20 19 5 5 5 4 7 11 17 17 13 12 7 18 17 10 2 1 3 5 1 1 2 3 4 3 4 8 7 6 12 18 20 13 11 10 12 12 14 13 11 9 9 10 12 12 14 17
15 16 17 17 20 22 17 4 4 4 6 9 6 11 6 10 13 18 20 18 13 4 4 3 3 3 3 3 3 3 7 9 14 15 9 7 12 13 21 19 17 10 14 14 15 15 12 10 8 8 10 10 12 13
16 17 17 15 9 12 6 4 3 5 8 12 15 20 16 16 18 17 19 19 14 11 5 4 4 3 4 6 5 7 9 9 14 17 12 10 10 14 16 17 18 15 15 17 17 16 16 12 9 8 9 8 9 10
14 13 10 10 8 5 5 5 4 7 6 8 18 19 16 17 18 15 21 23 22 7 6 3 4 5 6 13 14 17 18 21 18 17 20 15 13 15 21 21 20 17 19 18 16 16 17 18 14 10 7 6 5 7
11 10 14 14 9 7 5 5 5 6 10 8 14 23 18 20 18 12 12 7 4 4 2 4 12 16 14 14 16 19 19 17 17 14 23 23 14 18 19 23 20 16 20 26 20 17 16 19 17 15 11 7 4 4
9 14 14 7 2 2 5 6 6 12 8 12 13 12 11 8 13 12 9 5 1 3 6 10 14 18 19 17 16 16 18 18 16 19 28 30 25 24 21 23 29 22 20 30 26 21 20 21 21 19 15 10 6 3
11 12 6 2 3 3 6 5 4 4 3 7 15 6 4 6 6 8 2 1 3 8 12 13 15 15 17 19 15 12 11 13 15 19 22 21 24 26 27 23 28 28 25 29 30 24 23 23 23 21 18 14 8 5
11 2 2 2 3 5 6 3 4 5 5 4 3 6 5 5 8 3 1 3 4 14 19 21 13 14 15 16 18 19 16 15 15 15 17 18 21 22 23 22 24 28 30 27 31 27 24 28 26 25 21 15 11 8
1 2 2 3 4 3 3 3 2 2 3 6 4 3 2 5 2 1 3 13 21 22 22 22 27 21 19 23 18 18 19 19 19 19 15 15 22 22 24 24 23 24 25 27 32 32 30 33 30 29 26 20 15 12
2 4 5 4 2 2 3 3 2 3 5 4 2 7 6 2 2 4 3 22 20 27 27 24 23 24 22 20 27 26 26 22 20 21 18 15 17 19 22 22 23 28 27 28 27 33 32 33 34 33 28 23 19 14
3 4 6 6 5 5 5 6 7 4 4 3 2 4 3 4 5 6 17 23 27 26 23 21 23 23 21 22 22 28 25 14 14 17 14 11 9 12 19 22 27 29 29 27 26 29 35 35 31 35 30 25 21 15
7 4 4 4 6 8 2 2 2 2 3 5 6 3 6 3 3 11 15 22 21 21 22 22 22 24 24 22 27 31 34 17 10 8 5 3 3 6 9 12 18 23 26 23 23 27 29 29 35 34 30 26 22 18
5 4 4 7 6 4 5 4 4 4 3 4 1 3 4 4 9 13 18 20 20 21 24 27 28 24 22 23 26 32 31 35 33 30 28 25 12 4 5 9 13 15 20 22 23 25 30 30 35 33 30 26 21 18
3 4 3 3 3 3 5 8 8 7 8 10 8 7 12 13 18 15 16 18 22 22 22 23 25 29 30 30 28 28 31 33 31 27 24 22 19 13 7 3 8 11 13 15 20 19 26 26 24 29 28 26 23 20
2 2 4 5 5 7 10 12 10 11 9 1 3 6 12 6 9 21 20 18 17 17 20 22 25 27 30 32 32 33 33 30 27 26 23 19 19 18 16 10 4 11 14 16 27 27 29 29 24 29 30 25 21 19
4 5 3 2 5 10 11 3 2 3 4 3 3 5 6 4 5 12 24 19 18 19 19 20 22 24 25 25 23 25 27 31 32 29 26 26 22 18 15 10 9 7 8 11 13 18 18 15 26 30 25 20 18 16
6 9 9 4 4 3 4 7 4 4 5 4 4 8 7 4 4 10 13 19 18 15 13 14 15 17 19 21 23 25 25 24 26 29 31 29 26 24 22 16 10 4 3 5 8 11 15 18 25 23 20 21 21 18
Wind_Direction
312 314 320 324 324 322 320 322 323 326 332 332 331 330 326 325 305 289 288 292 273 260 287 278 261 268 274 245 258 312 331 345 348 359 338 326 292 312 289 284 340 306 274 186 205 218 250 15 327 200 353 319 308 297
312 317 322 324 319 318 319 321 325 328 326 328 327 328 320 308 314 300 287 292 293 256 273 292 290 276 254 249 265 283 276 293 245 322 325 300 297 286 302 327 282 316 256 294 234 278 313 285 237 267 278 278 309 320
317 318 318 317 318 320 320 321 325 324 322 319 318 321 319 314 291 289 284 281 286 281 296 284 292 273 288 283 246 221 239 231 218 237 267 286 282 298 314 315 296 258 263 245 295 239 276 300 7 175 192 63 48 60
315 316 318 317 318 318 318 320 320 320 320 317 313 313 313 305 294 287 282 268 271 272 283 282 297 303 283 267 242 240 241 273 285 242 247 254 268 226 285 285 284 282 307 307 279 282 304 359 34 33 51 64 56 60
312 314 315 317 320 321 321 320 320 320 320 317 313 312 310 302 293 294 295 279 249 234 276 293 312 350 316 282 253 229 236 245 273 262 242 240 265 284 291 293 307 338 328 358 348 352 18 7 32 33 48 43 39 57
311 313 314 316 319 322 323 324 325 324 324 319 315 312 308 300 296 312 314 333 224 205 257 291 317 297 324 312 222 219 225 235 241 244 252 272 253 264 345 289 280 348 1 18 318 32 30 5 25 53 49 38 46 51
312 314 313 315 318 323 324 326 327 328 326 320 315 310 300 286 268 244 254 282 299 187 251 277 297 284 308 301 232 228 223 218 227 251 250 263 285 235 143 267 305 350 17 35 32 41 21 25 29 52 60 51 52 55
313 314 315 317 321 323 326 326 327 328 327 320 317 309 299 277 256 268 313 246 205 209 251 271 277 316 273 299 263 216 214 210 218 242 241 239 291 248 266 259 332 12 40 53 48 50 58 73 72 61 58 50 48 57
310 313 314 318 322 325 326 326 328 331 330 324 319 320 323 41 166 296 324 307 221 217 294 217 249 268 304 268 249 236 231 249 228 237 238 182 296 236 227 246 10 37 32 50 69 68 62 57 66 67 64 58 60 65
310 313 317 322 322 325 325 333 328 338 343 337 328 290 226 204 291 275 243 216 174 217 231 242 209 268 313 308 283 186 220 269 266 246 274 138 257 252 210 217 27 38 51 80 82 59 53 71 71 60 64 58 58 66
310 314 319 323 322 324 327 331 336 340 349 357 341 298 296 287 301 207 226 200 191 243 224 240 234 240 263 193 241 220 200 281 352 269 266 308 290 232 183 204 215 60 105 93 88 72 69 74 84 66 56 48 46 54
310 314 319 322 322 326 327 332 338 337 339 321 308 306 307 274 237 224 206 183 206 233 205 204 256 223 248 221 202 216 173 37 256 334 356 277 250 195 163 157 133 123 130 113 91 69 72 80 73 68 55 53 52 52
312 316 320 319 318 323 327 335 334 333 329 321 284 264 224 233 318 219 216 223 206 155 220 292 304 238 223 220 231 96 124 230 348 31 246 237 265 191 161 157 152 154 145 126 108 102 89 84 78 69 56 54 55 57
316 323 321 317 309 315 321 326 329 329 325 283 269 263 215 221 236 214 200 167 32 265 286 299 265 226 190 175 191 165 213 75 36 271 241 254 256 197 174 164 171 164 163 145 137 118 103 94 87 75 65 62 57 54
321 331 325 321 314 312 322 320 320 315 269 260 231 241 237 236 256 267 300 302 305 320 325 321 250 217 177 7 305 95 142 241 203 232 233 251 235 194 189 175 163 162 167 179 158 140 119 100 95 86 69 66 63 62
323 333 333 326 318 319 321 317 315 287 245 242 234 258 258 300 290 321 309 313 338 329 325 219 231 176 220 189 191 222 148 219 247 226 240 230 205 188 181 183 183 187 190 190 179 165 145 125 106 93 84 75 72 66
326 343 332 331 325 324 324 315 277 235 243 240 250 249 261 281 270 282 300 311 320 323 275 213 213 223 106 224 241 200 204 226 286 290 241 221 211 204 194 199 200 191 186 182 183 175 160 143 119 105 89 81 72 70
326 333 333 331 325 331 334 300 260 258 255 258 256 286 265 267 285 298 305 314 310 285 266 254 267 214 217 216 238 261 268 300 306 316 272 250 217 217 214 213 208 206 193 188 187 183 181 175 160 132 108 100 89 80
326 328 329 329 321 329 305 284 260 268 260 283 283 292 294 295 298 303 301 302 304 302 253 247 228 209 207 210 244 275 304 315 319 297 297 253 231 227 209 203 212 214 208 196 190 192 195 193 185 162 131 109 93 93
329 331 339 338 323 320 286 275 278 275 283 299 298 292 312 303 304 298 299 293 290 270 214 226 225 278 329 320 314 310 304 302 299 283 285 290 246 228 217 212 211 214 208 200 203 200 198 198 191 184 160 133 102 94
348 349 336 329 313 221 264 297 274 274 292 291 299 324 305 303 299 291 310 358 270 223 259 342 337 324 323 322 304 306 299 295 285 259 272 288 285 240 234 213 204 215 214 199 199 203 211 205 199 190 185 177 147 87
342 344 337 333 290 264 264 252 262 290 287 281 306 298 278 272 276 275 268 244 222 45 354 330 328 332 319 311 315 310 309 292 271 254 252 266 265 261 243 225 214 220 215 208 203 204 203 205 202 193 191 186 170 127
337 342 321 300 283 256 266 283 261 273 283 297 315 307 295 300 292 315 285 85 84 9 1 334 319 316 312 309 309 308 312 319 291 265 263 266 257 254 254 234 222 218 216 210 204 207 207 207 202 197 190 187 186 177
328 293 286 275 260 273 305 273 256 291 295 315 309 298 312 290 304 291 341 57 35 29 18 10 1 353 348 338 340 339 334 322 312 288 264 258 261 247 232 238 231 227 220 213 203 206 209 203 200 199 198 196 190 187
297 236 202 269 250 275 281 271 262 344 280 300 273 256 278 296 272 19 50 359 350 355 359 358 8 19 359 355 341 337 337 324 308 305 281 265 246 248 235 244 240 227 213 205 202 205 204 201 200 200 197 198 195 192
258 210 181 221 262 222 296 316 337 285 290 276 292 324 298 294 298 57 40 352 355 357 1 1 355 1 359 349 354 354 340 322 310 293 290 289 249 244 243 234 218 208 209 212 212 199 201 206 200 198 197 199 196 197
258 269 223 229 248 267 267 263 272 254 267 280 4 324 314 345 38 359 341 356 356 4 12 13 9 10 3 2 358 3 360 332 306 297 298 288 255 246 250 238 223 214 206 207 213 214 211 198 201 200 198 199 199 207
237 258 215 223 233 233 260 244 253 247 266 287 331 336 348 45 5 330 337 354 2 7 16 14 11 14 20 22 22 20 21 39 69 81 106 200 245 259 242 227 226 226 210 213 208 205 198 200 208 201 200 201 199 202
242 248 265 271 266 224 213 213 241 239 264 297 0 5 60 56 11 10 17 19 19 18 18 16 12 20 24 25 32 33 31 27 31 39 42 34 48 81 200 205 198 200 207 214 217 217 203 214 209 202 201 199 200 199
245 206 253 263 253 241 225 214 238 255 286 298 313 126 99 71 48 42 37 34 29 28 27 26 24 27 26 23 25 30 34 39 37 32 29 31 21 20 46 153 182 184 200 212 200 184 179 202 207 202 194 192 193 194
266 235 242 237 256 265 305 315 290 276 290 328 199 213 157 136 52 36 34 33 35 30 28 31 35 35 35 35 33 31 30 28 30 33 32 32 34 36 37 37 160 185 194 200 191 192 206 211 213 198 193 191 190 190
220 227 261 278 278 303 319 286 295 147 124 119 42 135 127 93 50 21 17 20 27 32 35 34 35 35 34 34 34 36 37 37 36 33 31 29 26 21 24 34 52 80 151 177 197 199 199 206 198 190 179 175 176 177
240 255 246 266 277 290 321 313 232 113 101 96 77 70 79 89 87 22 18 23 28 26 31 35 37 36 30 29 32 34 34 37 40 41 42 42 41 38 38 38 42 54 185 189 196 204 216 208 185 190 191 178 177 176